Weather in Kharkovskoye

Russia / Chechen Republic     43°28′31″N   46°20′04″E
temp.,
°C
wind,
m/s
gust,
m/s
humid.,
%
clouds,
%
prec.,
mm/h
press.,
hPa
HPBL,
m
8 may, sat
sat800:00+11se22914 0.0 101925
03:00+11se11854 0.0 101910
06:00+13ese22781 0.0 101976
09:00+20e56555 0.0 1017671
12:00+24e7840100 0.0 10151174
15:00+22e81043100 0.0 1013883
18:00+17e61162100 0.0 1013435
21:00+13e3776100 0.0 1013224
9 may, sun
sun900:00+12e239318 0.1 101160
03:00+11e22935 0.3 101020
06:00+12ne1191100 0.0 100995
09:00+18nnw11675 0.0 1009472
12:00+24nw334855 0.0 10081092
15:00+26nw44446 0.0 10061565
18:00+21wnw111552100 0.1 1009807
21:00+10w101681100 0.6 10181151
10 may, mon
mon1000:00+9w111686100 1.4 10201236
03:00+9wsw9148255 2.1 10211059
06:00+10w91376100 0.1 10211084
09:00+13w81154100 0.3 10211572
12:00+15w61043100 0.1 10202176
15:00+17wsw563695 0.1 10192087
18:00+16wsw354779 0.0 1019176
21:00+12w475699 0.0 1021266
11 may, tue
tue1100:00+11wnw2562100 0.0 1021174
03:00+9wnw366940 0.0 1020137
06:00+10nw227231 0.0 1021128
09:00+15ene46569 0.0 10201267
12:00+18ese564443 0.0 10171798
15:00+18e884430 0.0 10171697
18:00+15e79585 0.0 1018916
21:00+11e410800 0.0 1019269
12 may, wed
wed1200:00+9e35933 0.0 1018101
03:00+8e239420 0.0 101848
06:00+10e26870 0.0 1018201
09:00+17e57551 0.0 10171139
12:00+21e66451 0.0 10161524
15:00+20e66460 0.0 10151354
18:00+17e4562100 0.0 1016563
21:00+12ese3583100 0.0 101685